"read_dt","SO2 (ppb)","flags","PMT voltage (V)","lamp voltage (V)","lamp intensity (Hz)","internal temp (C)","react chamber temp (C)","sample flow (l/min)","pres (mmHg)","SO2 bkg (ppb)","SO2 coefficient"
2017-04-20 00:00:00,1874E-3,5C000400,-0724,0837,12033,030.9,045.6,0.216,751.0,01.17,0.508
2017-04-20 00:01:00,1593E-3,5C000400,-0724,0837,12034,031.0,045.6,0.216,751.0,01.17,0.508
2017-04-20 00:02:00,1657E-3,5C000400,-0724,0837,12048,031.0,045.6,0.215,751.0,01.17,0.508
2017-04-20 00:03:00,1718E-3,5C000400,-0724,0839,11924,031.1,045.6,0.215,751.0,01.17,0.508
2017-04-20 00:04:00,1695E-3,5C000400,-0724,0837,12033,031.2,045.5,0.215,751.0,01.17,0.508
2017-04-20 00:05:00,1790E-3,5C000400,-0724,0837,12090,031.3,045.5,0.215,751.0,01.17,0.508
2017-04-20 00:06:00,1747E-3,5C000400,-0724,0838,12042,031.3,045.6,0.215,751.0,01.17,0.508
2017-04-20 00:07:00,1710E-3,5C000400,-0724,0837,12177,031.4,045.6,0.215,751.0,01.17,0.508
2017-04-20 00:08:00,1853E-3,5C000400,-0724,0838,11955,031.5,045.6,0.215,751.0,01.17,0.508
2017-04-20 00:09:00,1752E-3,5C000400,-0724,0839,12129,031.5,045.5,0.215,751.0,01.17,0.508
2017-04-20 00:10:00,1675E-3,5C000400,-0724,0838,12185,031.5,045.6,0.214,751.0,01.17,0.508
2017-04-20 00:11:00,1748E-3,5C000400,-0724,0838,12106,031.5,045.6,0.214,751.0,01.17,0.508
2017-04-20 00:12:00,1692E-3,5C000400,-0724,0838,11930,031.4,045.6,0.214,751.0,01.17,0.508
2017-04-20 00:13:00,1715E-3,5C000400,-0724,0838,12083,031.2,045.5,0.214,751.0,01.17,0.508
2017-04-20 00:14:00,1824E-3,5C000400,-0724,0837,12048,031.1,045.5,0.214,751.0,01.17,0.508
2017-04-20 00:15:00,1749E-3,5C000400,-0724,0837,12101,030.9,045.5,0.214,751.0,01.17,0.508
2017-04-20 00:16:00,1640E-3,5C000400,-0724,0837,12091,030.7,045.5,0.215,751.0,01.17,0.508
2017-04-20 00:17:00,1815E-3,5C000400,-0724,0836,12056,030.5,045.5,0.215,751.0,01.17,0.508
2017-04-20 00:18:00,1730E-3,5C000400,-0724,0837,12174,030.3,045.5,0.215,751.0,01.17,0.508
2017-04-20 00:19:00,1793E-3,5C000400,-0724,0837,12057,030.1,045.5,0.215,751.0,01.17,0.508
2017-04-20 00:20:00,1746E-3,5C000400,-0724,0837,12008,030.0,045.5,0.215,751.0,01.17,0.508
2017-04-20 00:21:00,1701E-3,5C000400,-0724,0837,12087,029.8,045.5,0.215,751.0,01.17,0.508
2017-04-20 00:22:00,1648E-3,5C000400,-0724,0837,12155,029.7,045.5,0.216,751.0,01.17,0.508
2017-04-20 00:23:00,1857E-3,5C000400,-0724,0836,12171,029.6,045.5,0.216,751.0,01.17,0.508
2017-04-20 00:24:00,1761E-3,5C000400,-0724,0836,12053,029.6,045.5,0.216,751.0,01.17,0.508
2017-04-20 00:25:00,1623E-3,5C000400,-0724,0836,12019,029.5,045.5,0.216,751.0,01.17,0.508
2017-04-20 00:26:00,1796E-3,5C000400,-0724,0837,12107,029.4,045.5,0.217,751.0,01.17,0.508
2017-04-20 00:27:00,1718E-3,5C000400,-0724,0837,12119,029.4,045.5,0.217,751.0,01.17,0.508
2017-04-20 00:28:00,1718E-3,5C000400,-0724,0837,11948,029.3,045.5,0.217,751.0,01.17,0.508
2017-04-20 00:29:00,1843E-3,5C000400,-0724,0836,12058,029.3,045.5,0.217,751.0,01.17,0.508
2017-04-20 00:30:00,1714E-3,5C000400,-0724,0836,12024,029.2,045.5,0.218,751.0,01.17,0.508
2017-04-20 00:31:00,1756E-3,5C000400,-0724,0837,12047,029.2,045.5,0.218,751.0,01.17,0.508
2017-04-20 00:32:00,1740E-3,5C000400,-0724,0837,12061,029.2,045.5,0.218,751.0,01.17,0.508
2017-04-20 00:33:00,1816E-3,5C000400,-0724,0837,12095,029.2,045.5,0.218,751.0,01.17,0.508
2017-04-20 00:34:00,1759E-3,5C000400,-0724,0837,12056,029.2,045.5,0.218,751.0,01.17,0.508
2017-04-20 00:35:00,1723E-3,5C000400,-0724,0836,12152,029.3,045.5,0.219,751.0,01.17,0.508
2017-04-20 00:36:00,1747E-3,5C000400,-0724,0836,12059,029.3,045.5,0.219,751.0,01.17,0.508
2017-04-20 00:37:00,1787E-3,5C000400,-0724,0837,11986,029.3,045.5,0.219,751.0,01.17,0.508
2017-04-20 00:38:00,1791E-3,5C000400,-0724,0837,11915,029.3,045.5,0.219,751.0,01.17,0.508
2017-04-20 00:39:00,1734E-3,5C000400,-0724,0837,11881,029.3,045.5,0.218,751.0,01.17,0.508
2017-04-20 00:40:00,1748E-3,5C000400,-0724,0837,12062,029.3,045.5,0.219,751.0,01.17,0.508
2017-04-20 00:41:00,1624E-3,5C000400,-0724,0837,12082,029.3,045.5,0.219,751.0,01.17,0.508
2017-04-20 00:42:00,1706E-3,5C000400,-0724,0837,11914,029.3,045.5,0.219,751.0,01.17,0.508
2017-04-20 00:43:00,1738E-3,5C000400,-0724,0837,12095,029.4,045.5,0.219,751.0,01.17,0.508
2017-04-20 00:44:00,1648E-3,5C000400,-0724,0837,11986,029.4,045.5,0.219,750.9,01.17,0.508
2017-04-20 00:45:00,1644E-3,5C000000,-0724,0837,11965,029.4,045.5,0.427,741.4,01.18,0.508
2017-04-20 00:46:00,1719E-3,5C000400,-0724,0837,12177,029.3,045.5,0.217,751.0,01.17,0.508
2017-04-20 00:47:00,1911E-3,5C000400,-0724,0838,11963,029.3,045.5,0.218,751.0,01.17,0.508
2017-04-20 00:48:00,1777E-3,5C000400,-0724,0838,12058,029.2,045.5,0.218,751.0,01.17,0.508
2017-04-20 00:49:00,1648E-3,5C000400,-0724,0837,12006,029.1,045.5,0.217,751.0,01.17,0.508
2017-04-20 00:50:00,1711E-3,5C000400,-0724,0837,11919,029.0,045.5,0.218,751.0,01.17,0.508
2017-04-20 00:51:00,1665E-3,5C000400,-0724,0837,12185,028.9,045.4,0.218,751.0,01.17,0.508
2017-04-20 00:52:00,1587E-3,5C000400,-0724,0838,12166,028.9,045.5,0.218,751.0,01.17,0.508
2017-04-20 00:53:00,1620E-3,5C000400,-0724,0837,12105,028.8,045.5,0.218,751.0,01.17,0.508
2017-04-20 00:54:00,1774E-3,5C000400,-0724,0837,12129,028.7,045.5,0.218,751.0,01.17,0.508
2017-04-20 00:55:00,1705E-3,5C000400,-0724,0836,11963,028.6,045.5,0.218,751.0,01.17,0.508
2017-04-20 00:56:00,1771E-3,5C000400,-0724,0837,11977,028.5,045.4,0.218,751.1,01.17,0.508
2017-04-20 00:57:00,1663E-3,5C000400,-0724,0836,12014,028.4,045.4,0.218,751.1,01.17,0.508
2017-04-20 00:58:00,1752E-3,5C000400,-0724,0836,12058,028.3,045.5,0.218,751.1,01.17,0.508
2017-04-20 00:59:00,1692E-3,5C000400,-0724,0836,12085,028.2,045.5,0.219,751.1,01.17,0.508
2017-04-20 01:00:00,1742E-3,5C000400,-0724,0836,12015,028.1,045.5,0.219,751.1,01.17,0.508
2017-04-20 01:01:00,1631E-3,5C000400,-0724,0837,12028,028.0,045.4,0.219,751.2,01.17,0.508
2017-04-20 01:02:00,1773E-3,5C000400,-0724,0837,12147,028.0,045.4,0.219,751.2,01.17,0.508
2017-04-20 01:03:00,1662E-3,5C000400,-0724,0837,12016,027.9,045.4,0.219,751.2,01.17,0.508
2017-04-20 01:04:00,1826E-3,5C000400,-0724,0837,12086,027.8,045.4,0.220,751.2,01.17,0.508
2017-04-20 01:05:00,1669E-3,5C000400,-0724,0837,12182,027.7,045.4,0.220,751.2,01.17,0.508
2017-04-20 01:06:00,1664E-3,5C000400,-0724,0837,12118,027.7,045.4,0.220,751.2,01.17,0.508
2017-04-20 01:07:00,1703E-3,5C000400,-0724,0837,12096,027.6,045.4,0.222,751.0,01.17,0.508
2017-04-20 01:08:00,1877E-3,5C000400,-0724,0836,12059,027.5,045.4,0.222,751.0,01.17,0.508
2017-04-20 01:09:00,1719E-3,5C000400,-0724,0836,12194,027.5,045.4,0.222,751.0,01.17,0.508
2017-04-20 01:10:00,1803E-3,5C000400,-0724,0837,12050,027.7,045.4,0.222,751.0,01.17,0.508
2017-04-20 01:11:00,1777E-3,5C000400,-0724,0836,12049,027.7,045.4,0.222,751.0,01.17,0.508
2017-04-20 01:12:00,1652E-3,5C000400,-0724,0837,12121,027.9,045.4,0.222,751.0,01.17,0.508
2017-04-20 01:13:00,1882E-3,5C000400,-0724,0836,12042,027.9,045.4,0.221,751.0,01.17,0.508
2017-04-20 01:14:00,1691E-3,5C000400,-0724,0836,12134,028.0,045.4,0.221,751.0,01.17,0.508
2017-04-20 01:15:00,1646E-3,5C000400,-0724,0837,11994,028.1,045.4,0.222,751.0,01.17,0.508
2017-04-20 01:16:00,1544E-3,5C000400,-0724,0837,12158,028.2,045.5,0.221,751.0,01.17,0.508
2017-04-20 01:17:00,1758E-3,5C000400,-0724,0836,12012,028.3,045.5,0.221,751.0,01.17,0.508
2017-04-20 01:18:00,1791E-3,5C000400,-0724,0837,11947,028.4,045.5,0.221,751.0,01.17,0.508
2017-04-20 01:19:00,1755E-3,5C000400,-0724,0837,12055,028.5,045.4,0.221,751.0,01.17,0.508
2017-04-20 01:20:00,1693E-3,5C000400,-0724,0837,12140,028.6,045.5,0.221,751.0,01.17,0.508
2017-04-20 01:21:00,1770E-3,5C000400,-0724,0837,12128,028.7,045.5,0.221,751.0,01.17,0.508
2017-04-20 01:22:00,1907E-3,5C000400,-0724,0837,12034,028.8,045.5,0.221,751.0,01.17,0.508
2017-04-20 01:23:00,1674E-3,5C000400,-0724,0837,12140,028.9,045.5,0.220,751.0,01.17,0.508
2017-04-20 01:24:00,1684E-3,5C000400,-0724,0836,11969,029.0,045.5,0.220,751.0,01.17,0.508
2017-04-20 01:25:00,1756E-3,5C000400,-0724,0837,12169,029.0,045.5,0.220,751.0,01.17,0.508
2017-04-20 01:26:00,1726E-3,5C000400,-0724,0836,12102,028.9,045.5,0.219,751.0,01.17,0.508
2017-04-20 01:27:00,1728E-3,5C000400,-0724,0837,12185,028.8,045.4,0.220,751.0,01.17,0.508
2017-04-20 01:28:00,1749E-3,5C000400,-0724,0837,11889,028.7,045.5,0.220,751.0,01.17,0.508
2017-04-20 01:29:00,1748E-3,5C000400,-0724,0837,12188,028.6,045.4,0.219,751.0,01.17,0.508
2017-04-20 01:30:00,1769E-3,5C000400,-0724,0836,12132,028.4,045.5,0.220,751.0,01.17,0.508
2017-04-20 01:31:00,1720E-3,5C000400,-0724,0836,11950,028.4,045.5,0.220,751.0,01.17,0.508
2017-04-20 01:32:00,1777E-3,5C000400,-0724,0836,12080,028.3,045.5,0.220,751.0,01.17,0.508
2017-04-20 01:33:00,1640E-3,5C000400,-0724,0837,12080,028.2,045.5,0.220,751.0,01.17,0.508
2017-04-20 01:34:00,1745E-3,5C000400,-0724,0837,12116,028.2,045.5,0.220,751.0,01.17,0.508
2017-04-20 01:35:00,1751E-3,5C000400,-0724,0837,12091,028.1,045.5,0.220,751.0,01.17,0.508
2017-04-20 01:36:00,1780E-3,5C000400,-0724,0837,12086,028.1,045.5,0.220,751.0,01.17,0.508
2017-04-20 01:37:00,1600E-3,5C000400,-0724,0837,12010,028.0,045.5,0.220,751.0,01.17,0.508
2017-04-20 01:38:00,1764E-3,5C000400,-0724,0837,12133,027.9,045.5,0.221,751.0,01.17,0.508
2017-04-20 01:39:00,1756E-3,5C000400,-0724,0837,12118,027.9,045.4,0.220,751.0,01.17,0.508
2017-04-20 01:40:00,1686E-3,5C000400,-0724,0837,12012,027.8,045.5,0.221,751.0,01.17,0.508
2017-04-20 01:41:00,1734E-3,5C000400,-0724,0836,12111,027.8,045.5,0.221,751.0,01.17,0.508
2017-04-20 01:42:00,1786E-3,5C000400,-0724,0837,12180,027.7,045.4,0.221,751.0,01.17,0.508
2017-04-20 01:43:00,1673E-3,5C000400,-0724,0836,12096,027.7,045.4,0.221,751.0,01.17,0.508
2017-04-20 01:44:00,1757E-3,5C000400,-0724,0837,12051,027.6,045.5,0.221,751.0,01.17,0.508
2017-04-20 01:45:00,1670E-3,5C000400,-0724,0837,12219,027.6,045.5,0.221,751.0,01.17,0.508
2017-04-20 01:46:00,1759E-3,5C000400,-0724,0837,11937,027.6,045.5,0.221,751.0,01.17,0.508
2017-04-20 01:47:00,1803E-3,5C000400,-0724,0836,12126,027.5,045.4,0.222,751.0,01.17,0.508
2017-04-20 01:48:00,1766E-3,5C000400,-0724,0837,12122,027.5,045.4,0.221,751.0,01.17,0.508
2017-04-20 01:49:00,1793E-3,5C000400,-0724,0837,12132,027.5,045.4,0.222,751.0,01.17,0.508
2017-04-20 01:50:00,1828E-3,5C000400,-0724,0837,12118,027.4,045.4,0.222,751.0,01.17,0.508
2017-04-20 01:51:00,1718E-3,5C000400,-0724,0838,12084,027.4,045.4,0.222,751.0,01.17,0.508
2017-04-20 01:52:00,1862E-3,5C000400,-0724,0837,12117,027.4,045.4,0.222,751.0,01.17,0.508
2017-04-20 01:53:00,1752E-3,5C000400,-0724,0836,12136,027.3,045.4,0.222,751.0,01.17,0.508
2017-04-20 01:54:00,1885E-3,5C000400,-0724,0836,11962,027.3,045.4,0.222,751.0,01.17,0.508
2017-04-20 01:55:00,1703E-3,5C000400,-0724,0836,12035,027.3,045.4,0.222,751.0,01.17,0.508
2017-04-20 01:56:00,1755E-3,5C000400,-0724,0837,11953,027.3,045.5,0.223,751.0,01.17,0.508
2017-04-20 01:57:00,1754E-3,5C000400,-0724,0836,12147,027.2,045.4,0.222,751.0,01.17,0.508
2017-04-20 01:58:00,1698E-3,5C000400,-0724,0837,12045,027.2,045.4,0.223,751.0,01.17,0.508
2017-04-20 01:59:00,1733E-3,5C000400,-0724,0836,11979,027.2,045.4,0.222,751.0,01.17,0.508
2017-04-20 02:00:00,1724E-3,5C000400,-0724,0836,12027,027.2,045.4,0.223,751.0,01.17,0.508
2017-04-20 02:01:00,1684E-3,5C000400,-0724,0836,12124,027.1,045.4,0.223,751.0,01.17,0.508
2017-04-20 02:02:00,1749E-3,5C000400,-0724,0836,11921,027.1,045.4,0.222,751.0,01.17,0.508
2017-04-20 02:03:00,1729E-3,5C000400,-0724,0836,12152,027.1,045.4,0.223,751.0,01.17,0.508
2017-04-20 02:04:00,1728E-3,5C000400,-0724,0836,12041,027.1,045.4,0.223,751.0,01.17,0.508
2017-04-20 02:05:00,1663E-3,5C000400,-0724,0836,12097,027.1,045.4,0.223,751.0,01.17,0.508
2017-04-20 02:06:00,1722E-3,5C000400,-0724,0836,11995,027.0,045.4,0.223,750.9,01.17,0.508
2017-04-20 02:07:00,1717E-3,5C000400,-0724,0837,12015,027.0,045.5,0.223,750.9,01.17,0.508
2017-04-20 02:08:00,1731E-3,5C000400,-0724,0837,12155,027.0,045.4,0.223,750.9,01.17,0.508
2017-04-20 02:09:00,1760E-3,5C000400,-0724,0836,12132,026.9,045.4,0.223,750.9,01.17,0.508
2017-04-20 02:10:00,1728E-3,5C000400,-0724,0836,12079,026.9,045.4,0.224,750.8,01.17,0.508
2017-04-20 02:11:00,1607E-3,5C000400,-0724,0836,12051,026.9,045.4,0.223,750.8,01.17,0.508
2017-04-20 02:12:00,1813E-3,5C000400,-0724,0836,11812,026.9,045.4,0.223,750.8,01.17,0.508
2017-04-20 02:13:00,1778E-3,5C000400,-0724,0836,11976,026.9,045.4,0.223,750.8,01.17,0.508
2017-04-20 02:14:00,1680E-3,5C000400,-0724,0836,12070,026.9,045.4,0.223,750.8,01.17,0.508
2017-04-20 02:15:00,1719E-3,5C000400,-0724,0836,12032,026.8,045.4,0.223,750.8,01.17,0.508
2017-04-20 02:16:00,1628E-3,5C000400,-0724,0835,12118,026.8,045.4,0.223,750.8,01.17,0.508
2017-04-20 02:17:00,1715E-3,5C000400,-0724,0836,12029,026.8,045.4,0.223,750.8,01.17,0.508
2017-04-20 02:18:00,1700E-3,5C000400,-0724,0836,12050,026.7,045.4,0.224,750.8,01.17,0.508
2017-04-20 02:19:00,1593E-3,5C000400,-0724,0836,11990,026.7,045.4,0.223,750.8,01.17,0.508
2017-04-20 02:20:00,1790E-3,5C000400,-0724,0835,11998,026.6,045.4,0.224,750.8,01.17,0.508
2017-04-20 02:21:00,1685E-3,5C000400,-0724,0835,11905,026.6,045.4,0.224,750.8,01.17,0.508
2017-04-20 02:22:00,1740E-3,5C000400,-0724,0836,12139,026.6,045.4,0.224,750.8,01.17,0.508
2017-04-20 02:23:00,1632E-3,5C000400,-0724,0836,11972,026.5,045.4,0.224,750.8,01.17,0.508
2017-04-20 02:24:00,1821E-3,5C000400,-0724,0836,12106,026.5,045.4,0.224,750.8,01.17,0.508
2017-04-20 02:25:00,1700E-3,5C000400,-0724,0836,12023,026.5,045.4,0.224,750.8,01.17,0.508
2017-04-20 02:26:00,1749E-3,5C000400,-0724,0837,12200,026.5,045.4,0.224,750.8,01.17,0.508
2017-04-20 02:27:00,1695E-3,5C000400,-0724,0837,12077,026.6,045.4,0.224,750.8,01.17,0.508
2017-04-20 02:28:00,1712E-3,5C000400,-0724,0836,12037,026.6,045.4,0.224,750.8,01.17,0.508
2017-04-20 02:29:00,1761E-3,5C000400,-0724,0836,12092,026.6,045.4,0.224,750.8,01.17,0.508
2017-04-20 02:30:00,1737E-3,5C000400,-0724,0836,11982,026.6,045.4,0.224,750.8,01.17,0.508
2017-04-20 02:31:00,1912E-3,5C000400,-0724,0836,12009,026.6,045.4,0.224,750.8,01.17,0.508
2017-04-20 02:32:00,1760E-3,5C000400,-0724,0837,12075,026.6,045.4,0.224,750.8,01.17,0.508
2017-04-20 02:33:00,1776E-3,5C000400,-0724,0836,12022,026.6,045.4,0.224,750.8,01.17,0.508
2017-04-20 02:34:00,1661E-3,5C000400,-0724,0836,12056,026.6,045.4,0.224,750.8,01.17,0.508
2017-04-20 02:35:00,1673E-3,5C000400,-0724,0837,12165,026.6,045.4,0.224,750.8,01.17,0.508
2017-04-20 02:36:00,1685E-3,5C000400,-0724,0837,11993,026.6,045.4,0.224,750.8,01.17,0.508
2017-04-20 02:37:00,1728E-3,5C000400,-0724,0836,12057,026.5,045.4,0.224,750.8,01.17,0.508
2017-04-20 02:38:00,1748E-3,5C000400,-0724,0836,12068,026.5,045.4,0.224,750.8,01.17,0.508
2017-04-20 02:39:00,1714E-3,5C000400,-0724,0836,12166,026.5,045.4,0.224,750.8,01.17,0.508
2017-04-20 02:40:00,1828E-3,5C000400,-0724,0836,12055,026.5,045.4,0.224,750.8,01.17,0.508
2017-04-20 02:41:00,1703E-3,5C000400,-0724,0836,12211,026.4,045.4,0.224,750.8,01.17,0.508
2017-04-20 02:42:00,1708E-3,5C000400,-0724,0836,12026,026.4,045.4,0.224,750.8,01.17,0.508
2017-04-20 02:43:00,1738E-3,5C000400,-0724,0836,12048,026.4,045.4,0.224,750.8,01.17,0.508
2017-04-20 02:44:00,1761E-3,5C000400,-0724,0836,12146,026.3,045.4,0.224,750.8,01.17,0.508
2017-04-20 02:45:00,1826E-3,5C000400,-0724,0836,12087,026.3,045.4,0.224,750.8,01.17,0.508
2017-04-20 02:46:00,1792E-3,5C000400,-0724,0836,12093,026.3,045.4,0.224,750.7,01.17,0.508
2017-04-20 02:47:00,1769E-3,5C000400,-0724,0836,12180,026.3,045.4,0.225,750.8,01.17,0.508
2017-04-20 02:48:00,1826E-3,5C000400,-0724,0836,11978,026.3,045.4,0.225,750.8,01.17,0.508
2017-04-20 02:49:00,1872E-3,5C000400,-0724,0836,12112,026.3,045.4,0.224,750.7,01.17,0.508
2017-04-20 02:50:00,1742E-3,5C000400,-0724,0836,12226,026.4,045.4,0.225,750.7,01.17,0.508
2017-04-20 02:51:00,1646E-3,5C000400,-0724,0836,12094,026.4,045.4,0.224,750.7,01.17,0.508
2017-04-20 02:52:00,1705E-3,5C000400,-0724,0836,12116,026.4,045.4,0.225,750.7,01.17,0.508
2017-04-20 02:53:00,1696E-3,5C000400,-0724,0835,12075,026.5,045.4,0.225,750.7,01.17,0.508
2017-04-20 02:54:00,1807E-3,5C000400,-0724,0836,12113,026.5,045.4,0.224,750.7,01.17,0.508
2017-04-20 02:55:00,1686E-3,5C000400,-0724,0836,12076,026.5,045.4,0.225,750.7,01.17,0.508
2017-04-20 02:56:00,1568E-3,5C000400,-0724,0837,12099,026.5,045.4,0.224,750.7,01.17,0.508
2017-04-20 02:57:00,1759E-3,5C000400,-0724,0836,12132,026.5,045.4,0.224,750.7,01.17,0.508
2017-04-20 02:58:00,1674E-3,5C000400,-0724,0836,12090,026.5,045.4,0.224,750.7,01.17,0.508
2017-04-20 02:59:00,1656E-3,5C000400,-0724,0836,11880,026.5,045.4,0.224,750.7,01.17,0.508
2017-04-20 03:00:00,1801E-3,5C000400,-0724,0835,12218,026.5,045.4,0.224,750.7,01.17,0.508
2017-04-20 03:01:00,1692E-3,5C000400,-0724,0836,12122,026.4,045.4,0.225,750.7,01.17,0.508
2017-04-20 03:02:00,1753E-3,5C000400,-0724,0835,12141,026.4,045.4,0.224,750.7,01.17,0.508
2017-04-20 03:03:00,1673E-3,5C000400,-0724,0836,12131,026.4,045.4,0.224,750.7,01.17,0.508
2017-04-20 03:04:00,1808E-3,5C000400,-0724,0836,12021,026.4,045.4,0.225,750.7,01.17,0.508
2017-04-20 03:05:00,1638E-3,5C000400,-0724,0835,12121,026.4,045.4,0.224,750.7,01.17,0.508
2017-04-20 03:06:00,1705E-3,5C000400,-0724,0837,12077,026.4,045.4,0.224,750.7,01.17,0.508
2017-04-20 03:07:00,1692E-3,5C000400,-0724,0836,12086,026.4,045.4,0.225,750.7,01.17,0.508
2017-04-20 03:08:00,1727E-3,5C000400,-0724,0837,12100,026.4,045.4,0.225,750.7,01.17,0.508
2017-04-20 03:09:00,1847E-3,5C000400,-0724,0837,12106,026.4,045.4,0.224,750.7,01.17,0.508
2017-04-20 03:10:00,1618E-3,5C000400,-0724,0836,12191,026.4,045.4,0.225,750.6,01.17,0.508
2017-04-20 03:11:00,1840E-3,5C000400,-0724,0836,12159,026.3,045.4,0.225,750.6,01.17,0.508
2017-04-20 03:12:00,1637E-3,5C000400,-0724,0836,12070,026.4,045.4,0.225,750.6,01.17,0.508
2017-04-20 03:13:00,1906E-3,5C000400,-0724,0836,12127,026.3,045.4,0.225,750.6,01.17,0.508
2017-04-20 03:14:00,1726E-3,5C000400,-0724,0836,12067,026.3,045.4,0.225,750.6,01.17,0.508
2017-04-20 03:15:00,1762E-3,5C000400,-0724,0836,12102,026.3,045.4,0.225,750.6,01.17,0.508
2017-04-20 03:16:00,1695E-3,5C000400,-0724,0837,12063,026.3,045.4,0.225,750.6,01.17,0.508
2017-04-20 03:17:00,1669E-3,5C000400,-0724,0836,12221,026.4,045.4,0.224,750.6,01.17,0.508
2017-04-20 03:18:00,1701E-3,5C000400,-0724,0836,12087,026.4,045.4,0.225,750.6,01.17,0.508
2017-04-20 03:19:00,1723E-3,5C000400,-0724,0835,12019,026.4,045.4,0.224,750.6,01.17,0.508
2017-04-20 03:20:00,1709E-3,5C000400,-0724,0836,11987,026.4,045.4,0.225,750.6,01.17,0.508
2017-04-20 03:21:00,1628E-3,5C000400,-0724,0836,11929,026.4,045.4,0.225,750.6,01.17,0.508
2017-04-20 03:22:00,1656E-3,5C000400,-0724,0837,12114,026.4,045.4,0.225,750.6,01.17,0.508
2017-04-20 03:23:00,1779E-3,5C000400,-0724,0837,12068,026.4,045.4,0.225,750.6,01.17,0.508
2017-04-20 03:24:00,1733E-3,5C000400,-0724,0836,11950,026.4,045.4,0.225,750.6,01.17,0.508
2017-04-20 03:25:00,1763E-3,5C000400,-0724,0836,11969,026.4,045.4,0.225,750.6,01.17,0.508
2017-04-20 03:26:00,1809E-3,5C000400,-0724,0836,11989,026.4,045.4,0.224,750.6,01.17,0.508
2017-04-20 03:27:00,1761E-3,5C000400,-0724,0836,12022,026.4,045.4,0.225,750.6,01.17,0.508
2017-04-20 03:28:00,1854E-3,5C000400,-0724,0836,12125,026.4,045.4,0.224,750.6,01.17,0.508
2017-04-20 03:29:00,1750E-3,5C000400,-0724,0836,12102,026.4,045.4,0.225,750.6,01.17,0.508
2017-04-20 03:30:00,1886E-3,5C000400,-0724,0836,12138,026.4,045.4,0.225,750.6,01.17,0.508
2017-04-20 03:31:00,1678E-3,5C000400,-0724,0836,11930,026.4,045.4,0.225,750.6,01.17,0.508
2017-04-20 03:32:00,1707E-3,5C000400,-0724,0836,12031,026.4,045.4,0.224,750.6,01.17,0.508
2017-04-20 03:33:00,1845E-3,5C000400,-0724,0836,11958,026.4,045.4,0.225,750.6,01.17,0.508
2017-04-20 03:34:00,1827E-3,5C000400,-0724,0837,12166,026.4,045.4,0.224,750.6,01.17,0.508
2017-04-20 03:35:00,1821E-3,5C000400,-0724,0836,12012,026.5,045.4,0.225,750.5,01.17,0.508
2017-04-20 03:36:00,1807E-3,5C000400,-0724,0835,12079,026.5,045.4,0.224,750.5,01.17,0.508
2017-04-20 03:37:00,1740E-3,5C000400,-0724,0836,12095,026.4,045.4,0.224,750.5,01.17,0.508
2017-04-20 03:38:00,1765E-3,5C000400,-0724,0836,12106,026.4,045.4,0.225,750.5,01.17,0.508
2017-04-20 03:39:00,1692E-3,5C000400,-0724,0836,12068,026.5,045.4,0.224,750.5,01.17,0.508
2017-04-20 03:40:00,1757E-3,5C000400,-0724,0836,12060,026.5,045.4,0.225,750.5,01.17,0.508
2017-04-20 03:41:00,1717E-3,5C000400,-0724,0837,12121,026.5,045.4,0.224,750.5,01.17,0.508
2017-04-20 03:42:00,1762E-3,5C000400,-0724,0836,12135,026.5,045.4,0.224,750.5,01.17,0.508
2017-04-20 03:43:00,1851E-3,5C000400,-0724,0837,12028,026.5,045.4,0.225,750.5,01.17,0.508
2017-04-20 03:44:00,1662E-3,5C000400,-0724,0836,12235,026.5,045.4,0.224,750.5,01.17,0.508
2017-04-20 03:45:00,1732E-3,5C000400,-0724,0835,12185,026.5,045.4,0.225,750.5,01.17,0.508
2017-04-20 03:46:00,1886E-3,5C000400,-0724,0836,12124,026.5,045.4,0.224,750.5,01.17,0.508
2017-04-20 03:47:00,1821E-3,5C000400,-0724,0836,11982,026.5,045.4,0.224,750.5,01.17,0.508
2017-04-20 03:48:00,1748E-3,5C000400,-0724,0836,12121,026.5,045.4,0.224,750.5,01.17,0.508
2017-04-20 03:49:00,1632E-3,5C000400,-0724,0836,12082,026.5,045.4,0.224,750.5,01.17,0.508
2017-04-20 03:50:00,1786E-3,5C000400,-0724,0836,12069,026.5,045.4,0.224,750.5,01.17,0.508
2017-04-20 03:51:00,1616E-3,5C000400,-0724,0836,12147,026.6,045.4,0.224,750.5,01.17,0.508
2017-04-20 03:52:00,1789E-3,5C000400,-0724,0836,12159,026.5,045.4,0.224,750.5,01.17,0.508
2017-04-20 03:53:00,1653E-3,5C000400,-0724,0836,12151,026.6,045.4,0.224,750.5,01.17,0.508
2017-04-20 03:54:00,1583E-3,5C000400,-0724,0836,12147,026.6,045.4,0.224,750.5,01.17,0.508
2017-04-20 03:55:00,1672E-3,5C000400,-0724,0836,12095,026.6,045.4,0.224,750.5,01.17,0.508
2017-04-20 03:56:00,1775E-3,5C000400,-0724,0836,12064,026.6,045.4,0.224,750.4,01.17,0.508
2017-04-20 03:57:00,1771E-3,5C000400,-0724,0836,12134,026.6,045.4,0.224,750.4,01.17,0.508
2017-04-20 03:58:00,1787E-3,5C000400,-0724,0836,12125,026.6,045.4,0.224,750.4,01.17,0.508
2017-04-20 03:59:00,1646E-3,5C000400,-0724,0836,12187,026.6,045.4,0.224,750.4,01.17,0.508
2017-04-20 04:00:00,1752E-3,5C000400,-0724,0836,12135,026.6,045.4,0.224,750.4,01.17,0.508
2017-04-20 04:01:00,1811E-3,5C000400,-0724,0836,12098,026.6,045.4,0.224,750.4,01.17,0.508
2017-04-20 04:02:00,1810E-3,5C000400,-0724,0837,11869,026.7,045.4,0.224,750.4,01.17,0.508
2017-04-20 04:03:00,1728E-3,5C000400,-0724,0837,12043,026.7,045.4,0.224,750.4,01.17,0.508
2017-04-20 04:04:00,1730E-3,5C000400,-0724,0836,12075,026.7,045.4,0.224,750.4,01.17,0.508
2017-04-20 04:05:00,1634E-3,5C000400,-0724,0836,12123,026.7,045.4,0.224,750.4,01.17,0.508
2017-04-20 04:06:00,1726E-3,5C000400,-0724,0836,12125,026.7,045.4,0.224,750.4,01.17,0.508
2017-04-20 04:07:00,1766E-3,5C000400,-0724,0837,12142,026.7,045.4,0.224,750.4,01.17,0.508
2017-04-20 04:08:00,1759E-3,5C000400,-0724,0836,11998,026.7,045.4,0.224,750.4,01.17,0.508
2017-04-20 04:09:00,1749E-3,5C000400,-0724,0836,11969,026.7,045.4,0.224,750.3,01.17,0.508
2017-04-20 04:10:00,1762E-3,5C000400,-0724,0836,12188,026.7,045.4,0.224,750.3,01.17,0.508
2017-04-20 04:11:00,1841E-3,5C000400,-0724,0837,12149,026.7,045.4,0.224,750.3,01.17,0.508
2017-04-20 04:12:00,1875E-3,5C000400,-0724,0837,12082,026.7,045.4,0.225,750.3,01.17,0.508
2017-04-20 04:13:00,1721E-3,5C000400,-0724,0837,11963,026.7,045.4,0.224,750.3,01.17,0.508
2017-04-20 04:14:00,1580E-3,5C000400,-0724,0836,12231,026.8,045.4,0.224,750.3,01.17,0.508
2017-04-20 04:15:00,1668E-3,5C000400,-0724,0837,12102,026.7,045.4,0.224,750.3,01.17,0.508
2017-04-20 04:16:00,1783E-3,5C000400,-0724,0836,11980,026.8,045.4,0.224,750.3,01.17,0.508
2017-04-20 04:17:00,1646E-3,5C000400,-0724,0836,12052,026.8,045.4,0.224,750.3,01.17,0.508
2017-04-20 04:18:00,1863E-3,5C000400,-0724,0837,12092,026.8,045.4,0.224,750.3,01.17,0.508
2017-04-20 04:19:00,1631E-3,5C000400,-0724,0837,12026,026.8,045.4,0.224,750.3,01.17,0.508
2017-04-20 04:20:00,1734E-3,5C000400,-0724,0837,12105,026.8,045.4,0.224,750.3,01.17,0.508